Location: Sedco Hills
(33.6417°N, 117.2909°W)
Time: 23:33:11
(UTC+00:00)

Daily predictions for brighter satellites

Satellite Brightness Start Highest point End
(mag) Time Altitude Azimuth Time Altitude Azimuth Time Altitude Azimuth
Cosmos 1484 Rocket 4.1 12:02:39 10° NNE 12:06:28 42° E 12:10:16 10° S
Meteor 1-4 Rocket 2.2 12:10:04 42° SSW 12:11:05 73° W 12:14:33 10° N
IRIDIUM 104 4.2 12:06:12 10° N 12:11:26 83° W 12:16:38 10° S
Cosmos 1777 Rocket 4.5 12:07:42 10° NW 12:12:26 36° W 12:17:07 10° SSW
Meteor 1-11 Rocket 4.4 12:08:31 10° N 12:14:12 57° E 12:19:43 10° SSE
Meteor 1-31 Rocket 3.8 12:13:18 10° NNE 12:16:58 45° E 12:20:40 10° S
NOSS 3-3 (A) 4.3 12:15:21 28° W 12:17:44 41° NW 12:23:36 10° NNE
NOSS 3-3 (C) 4.3 12:15:31 28° W 12:17:52 41° NW 12:23:41 10° NNE
Cosmos 1727 Rocket 4.0 12:13:52 10° SSW 12:20:11 72° W 12:26:32 10° N
IRIDIUM 114 4.2 12:15:23 10° N 12:20:34 67° W 12:25:43 10° S
Lacrosse 5 4.0 12:19:12 10° NW 12:20:46 12° NNW 12:22:36 10° N
Meteor 1-27 Rocket 3.8 12:16:05 10° S 12:22:00 88° E 12:27:58 10° N
ADEOS 3.5 12:18:58 10° N 12:24:12 82° WNW 12:29:25 10° SSW
USA 32 4.2 12:19:05 10° N 12:24:21 78° E 12:29:35 10° S
ERS-2 2.1 12:20:53 10° S 12:24:27 54° W 12:28:03 10° NNW
Cosmos 1238 Rocket 4.5 12:20:18 10° NNW 12:26:09 36° W 12:31:30 10° SSW
SJ-6F 4.3 12:22:26 10° N 12:26:29 64° WNW 12:30:31 10° SSW
IDEFIX/ARIANE 42P 4.5 12:25:42 10° NW 12:27:17 12° WNW 12:27:17 12° WNW
IRIDIUM 103 4.4 12:24:36 10° NNW 12:29:40 53° W 12:34:43 10° SSW
Landsat 5 4.5 12:27:38 10° SSW 12:31:28 28° W 12:35:20 10° NW
Cosmos 1812 3.9 12:36:03 21° W 12:36:45 22° WNW 12:39:48 10° NNW
Cosmos 1689 Rocket 4.0 12:37:18 10° SE 12:40:00 33° ENE 12:42:42 10° N
SL-4 R/B 2.3 12:36:43 17° WSW 12:40:10 69° NW 12:44:56 10° NE
X-37B 3.4 12:40:26 10° NNW 12:41:36 11° N 12:42:46 10° NNE
Cosmos 1814 Rocket 4.4 12:40:23 10° S 12:45:28 66° ESE 12:50:40 10° NNE
Cosmos 1937 Rocket 4.4 12:41:15 10° N 12:46:15 51° ENE 12:51:14 10° SSE
FALCON 9 DEB 3.4 12:44:56 17° WSW 12:47:20 49° NW 12:50:41 10° NE
deb Chang Zheng 4 4.1 12:44:58 10° N 12:48:57 38° WNW 12:52:52 10° SW
Cosmos 1500 4.5 12:48:09 10° NW 12:51:02 20° W 12:53:53 10° SW
USA 234 3.6 12:45:25 10° SSE 12:51:32 43° SW 12:57:40 10° WNW
Cosmos 1707 Rocket 4.1 12:48:05 10° SW 12:52:01 34° W 12:56:00 10° NNW
Cosmos 1459 Rocket 4.0 12:46:03 10° N 12:52:10 85° E 12:58:12 10° S
Cosmos 2360 Rocket 2.4 12:46:42 10° SSW 12:52:21 81° ESE 12:58:02 10° NNE
Cosmos 841 Rocket 3.5 12:47:14 10° SSW 12:52:26 81° WNW 12:57:41 10° NNE
USA 281 4.4 12:47:20 10° NE 12:53:37 46° ESE 12:59:50 10° S
ADEOS Rocket 3.4 12:47:54 10° S 12:54:52 51° W 13:01:12 10° NNW
Cosmos 1666 3.0 12:53:33 10° NNW 12:57:10 42° W 13:00:44 10° SSW
Cosmos 1570 Rocket 4.0 12:55:23 10° SSW 13:00:38 69° WNW 13:05:57 10° NNE
CZ-4B R/B 4.4 12:57:54 10° N 13:02:02 45° WNW 13:06:16 10° SSW
DELTA 4 R/B 4.0 12:50:10 10° W 13:02:13 34° SSW 13:06:07 10° SE
CZ-4B R/B 2.5 12:58:41 10° N 13:02:20 76° WNW 13:05:53 10° SSW
Cosmos 1763 Rocket 4.4 12:59:10 10° SW 13:03:48 30° WNW 13:08:28 10° N
ALOS 2.7 12:59:32 10° N 13:03:54 40° WNW 13:08:14 10° SW
Cosmos 2322 Rocket 2.8 13:02:09 10° SW 13:07:22 38° WNW 13:12:40 10° N
Spot 2 4.3 13:04:11 10° NNE 13:08:15 68° ESE 13:12:14 10° S
SKYMED 2 3.8 13:04:00 10° SSE 13:08:18 77° ENE 13:12:39 10° N
PSLV R/B 4.0 13:05:55 10° SSE 13:09:57 87° ENE 13:14:02 10° NNW
Cosmos 2237 4.3 13:04:46 10° SSW 13:10:25 64° WNW 13:16:06 10° NNE
CZ-4B R/B 2.6 13:10:23 10° SW 13:12:39 19° W 13:15:00 10° NW
METEOR-M 4.5 13:08:01 10° N 13:13:07 45° WNW 13:18:10 10° SW
FENGYUN 3A 4.2 13:09:11 10° N 13:14:06 37° WNW 13:19:00 10° SW
Okean 1-7 4.3 13:10:04 10° SSE 13:14:10 47° E 13:18:15 10° NNE
SL-16 R/B 3.2 13:10:03 10° WSW 13:14:45 27° WNW 13:19:29 10° N
